Time,TemperatureF,DewpointF,PressureIn,WindDirection,WindDirectionDegrees,WindSpeedMPH,WindSpeedGustMPH,Humidity,HourlyPrecipIn,Conditions,Clouds,dailyrainin,SoftwareType,DateUTC
2013-08-30 00:01:00,66.1,61.1,29.99,NE,44,0.0,0.0,84,0.00,,,0.00,Wunderground v.1.15,2013-08-30 04:01:00,
2013-08-30 00:02:00,66.1,61.1,29.98,NE,44,0.0,0.0,84,0.00,,,0.00,Wunderground v.1.15,2013-08-30 04:02:00,
2013-08-30 00:03:00,66.1,61.1,29.99,NE,44,0.0,0.0,84,0.00,,,0.00,Wunderground v.1.15,2013-08-30 04:03:00,
2013-08-30 00:09:00,65.9,60.9,29.99,NE,44,0.0,0.0,84,0.00,,,0.00,Wunderground v.1.15,2013-08-30 04:09:00,
2013-08-30 00:14:00,65.6,61.0,29.99,NE,44,0.0,0.0,85,0.00,,,0.00,Wunderground v.1.15,2013-08-30 04:14:00,
2013-08-30 00:17:00,65.4,60.8,29.99,NE,44,0.0,0.0,85,0.00,,,0.00,Wunderground v.1.15,2013-08-30 04:17:00,
2013-08-30 00:19:00,65.4,60.8,29.99,NE,44,0.0,0.0,85,0.00,,,0.00,Wunderground v.1.15,2013-08-30 04:19:00,
2013-08-30 00:24:00,65.6,60.3,29.99,NE,44,0.0,0.0,83,0.00,,,0.00,Wunderground v.1.15,2013-08-30 04:24:00,
2013-08-30 00:30:00,66.0,60.7,29.99,NE,44,0.0,0.0,83,0.00,,,0.00,Wunderground v.1.15,2013-08-30 04:30:00,
2013-08-30 00:36:00,66.1,60.8,29.99,NE,44,0.0,0.0,83,0.00,,,0.00,Wunderground v.1.15,2013-08-30 04:36:00,
2013-08-30 00:41:00,66.1,60.8,29.99,NE,44,0.0,1.0,83,0.00,,,0.00,Wunderground v.1.15,2013-08-30 04:41:00,
2013-08-30 00:47:00,66.2,60.9,29.99,NE,43,0.0,1.0,83,0.00,,,0.00,Wunderground v.1.15,2013-08-30 04:47:00,
2013-08-30 00:53:00,66.4,61.1,29.99,NE,42,0.0,0.0,83,0.00,,,0.00,Wunderground v.1.15,2013-08-30 04:53:00,
2013-08-30 00:58:00,66.6,61.3,29.99,NE,42,0.0,2.0,83,0.00,,,0.00,Wunderground v.1.15,2013-08-30 04:58:00,
2013-08-30 01:04:00,66.7,61.4,29.99,NE,36,0.0,3.0,83,0.00,,,0.00,Wunderground v.1.15,2013-08-30 05:04:00,
2013-08-30 01:10:00,66.8,61.5,29.98,NE,36,0.0,0.0,83,0.00,,,0.00,Wunderground v.1.15,2013-08-30 05:10:00,
2013-08-30 01:15:00,67.0,61.7,29.98,NE,36,0.0,0.0,83,0.00,,,0.00,Wunderground v.1.15,2013-08-30 05:15:00,
2013-08-30 01:20:00,67.1,61.8,29.98,NE,36,0.0,0.0,83,0.00,,,0.00,Wunderground v.1.15,2013-08-30 05:20:00,
2013-08-30 01:26:00,67.2,61.5,29.98,NE,36,0.0,0.0,82,0.00,,,0.00,Wunderground v.1.15,2013-08-30 05:26:00,
2013-08-30 01:32:00,67.5,62.2,29.98,North,11,0.0,3.0,83,0.00,,,0.00,Wunderground v.1.15,2013-08-30 05:32:00,
2013-08-30 01:37:00,67.6,62.3,29.98,North,355,1.0,3.0,83,0.00,,,0.00,Wunderground v.1.15,2013-08-30 05:37:00,
2013-08-30 01:43:00,67.7,62.3,29.98,North,350,1.0,1.0,83,0.00,,,0.00,Wunderground v.1.15,2013-08-30 05:43:00,
2013-08-30 01:49:00,67.7,62.0,29.97,North,350,0.0,2.0,82,0.00,,,0.00,Wunderground v.1.15,2013-08-30 05:49:00,
2013-08-30 01:54:00,67.7,62.3,29.97,North,349,0.0,2.0,83,0.00,,,0.00,Wunderground v.1.15,2013-08-30 05:54:00,
2013-08-30 01:59:00,67.7,62.3,29.98,NNW,347,0.0,2.0,83,0.00,,,0.00,Wunderground v.1.15,2013-08-30 05:59:00,
2013-08-30 02:05:00,67.7,62.3,29.98,NNW,335,0.0,2.0,83,0.00,,,0.00,Wunderground v.1.15,2013-08-30 06:05:00,
2013-08-30 02:11:00,67.6,62.3,29.97,NNW,335,0.0,0.0,83,0.00,,,0.00,Wunderground v.1.15,2013-08-30 06:11:00,
2013-08-30 02:17:00,67.6,62.3,29.97,NNW,335,0.0,2.0,83,0.00,,,0.00,Wunderground v.1.15,2013-08-30 06:17:00,
2013-08-30 02:22:00,67.6,62.3,29.97,NNW,335,0.0,0.0,83,0.00,,,0.00,Wunderground v.1.15,2013-08-30 06:22:00,
2013-08-30 02:28:00,67.6,62.3,29.97,NNW,335,0.0,0.0,83,0.00,,,0.00,Wunderground v.1.15,2013-08-30 06:28:00,
2013-08-30 02:33:00,67.5,62.2,29.97,NNW,335,0.0,3.0,83,0.00,,,0.00,Wunderground v.1.15,2013-08-30 06:33:00,
2013-08-30 02:39:00,67.4,62.1,29.97,NW,325,1.0,3.0,83,0.00,,,0.00,Wunderground v.1.15,2013-08-30 06:39:00,
2013-08-30 02:45:00,67.4,62.1,29.97,NW,325,1.0,1.0,83,0.00,,,0.00,Wunderground v.1.15,2013-08-30 06:45:00,
2013-08-30 02:50:00,67.3,62.0,29.97,NW,325,0.0,0.0,83,0.00,,,0.00,Wunderground v.1.15,2013-08-30 06:50:00,
2013-08-30 02:56:00,67.2,61.9,29.97,NW,320,0.0,3.0,83,0.00,,,0.00,Wunderground v.1.15,2013-08-30 06:56:00,
2013-08-30 03:01:00,67.2,61.9,29.97,NW,320,0.0,0.0,83,0.00,,,0.00,Wunderground v.1.15,2013-08-30 07:01:00,
2013-08-30 03:06:00,67.0,61.7,29.97,NW,317,0.0,2.0,83,0.00,,,0.00,Wunderground v.1.15,2013-08-30 07:06:00,
2013-08-30 03:12:00,67.0,61.7,29.97,NW,317,0.0,0.0,83,0.00,,,0.00,Wunderground v.1.15,2013-08-30 07:12:00,
2013-08-30 03:18:00,66.9,61.6,29.97,NW,314,0.0,3.0,83,0.00,,,0.00,Wunderground v.1.15,2013-08-30 07:18:00,
2013-08-30 03:24:00,66.8,61.5,29.97,NW,314,0.0,1.0,83,0.00,,,0.00,Wunderground v.1.15,2013-08-30 07:24:00,
2013-08-30 03:30:00,66.7,61.4,29.97,NW,314,0.0,0.0,83,0.00,,,0.00,Wunderground v.1.15,2013-08-30 07:30:00,
2013-08-30 03:36:00,66.7,61.4,29.96,NW,314,0.0,1.0,83,0.00,,,0.00,Wunderground v.1.15,2013-08-30 07:36:00,
2013-08-30 03:41:00,66.7,61.4,29.96,NW,314,0.0,0.0,83,0.00,,,0.00,Wunderground v.1.15,2013-08-30 07:41:00,
2013-08-30 03:46:00,66.7,61.4,29.96,NW,314,0.0,0.0,83,0.00,,,0.00,Wunderground v.1.15,2013-08-30 07:46:00,
2013-08-30 03:52:00,66.7,61.4,29.96,NW,314,0.0,0.0,83,0.00,,,0.00,Wunderground v.1.15,2013-08-30 07:52:00,
2013-08-30 03:57:00,66.7,61.4,29.96,NW,314,0.0,0.0,83,0.00,,,0.00,Wunderground v.1.15,2013-08-30 07:57:00,
2013-08-30 04:03:00,66.7,61.4,29.96,NW,314,0.0,0.0,83,0.00,,,0.00,Wunderground v.1.15,2013-08-30 08:03:00,
2013-08-30 04:08:00,66.7,61.4,29.96,NW,314,0.0,2.0,83,0.00,,,0.00,Wunderground v.1.15,2013-08-30 08:08:00,
2013-08-30 04:14:00,66.7,61.4,29.96,NW,314,0.0,0.0,83,0.00,,,0.00,Wunderground v.1.15,2013-08-30 08:14:00,
2013-08-30 04:20:00,66.7,61.4,29.96,NW,314,0.0,0.0,83,0.00,,,0.00,Wunderground v.1.15,2013-08-30 08:20:00,
2013-08-30 04:25:00,66.6,61.3,29.97,NW,312,1.0,4.0,83,0.00,,,0.00,Wunderground v.1.15,2013-08-30 08:25:00,
2013-08-30 04:30:00,66.6,61.3,29.97,NW,310,1.0,1.0,83,0.00,,,0.00,Wunderground v.1.15,2013-08-30 08:30:00,
2013-08-30 04:36:00,66.5,61.2,29.97,NW,307,0.0,1.0,83,0.00,,,0.00,Wunderground v.1.15,2013-08-30 08:36:00,
2013-08-30 04:42:00,66.5,61.2,29.97,WNW,292,1.0,2.0,83,0.00,,,0.00,Wunderground v.1.15,2013-08-30 08:42:00,
2013-08-30 04:48:00,66.5,61.2,29.97,WNW,292,1.0,2.0,83,0.00,,,0.00,Wunderground v.1.15,2013-08-30 08:48:00,
2013-08-30 04:54:00,66.4,61.1,29.97,WNW,292,0.0,0.0,83,0.00,,,0.00,Wunderground v.1.15,2013-08-30 08:54:00,
2013-08-30 04:59:00,66.5,61.2,29.97,WNW,292,0.0,0.0,83,0.00,,,0.00,Wunderground v.1.15,2013-08-30 08:59:00,
2013-08-30 05:04:00,66.5,61.2,29.97,WNW,292,0.0,0.0,83,0.00,,,0.00,Wunderground v.1.15,2013-08-30 09:04:00,
2013-08-30 05:10:00,66.4,61.1,29.97,WNW,292,0.0,0.0,83,0.00,,,0.00,Wunderground v.1.15,2013-08-30 09:10:00,
2013-08-30 05:16:00,66.3,61.0,29.96,WNW,292,0.0,2.0,83,0.00,,,0.00,Wunderground v.1.15,2013-08-30 09:16:00,
2013-08-30 05:22:00,66.3,61.0,29.96,WNW,292,0.0,0.0,83,0.00,,,0.00,Wunderground v.1.15,2013-08-30 09:22:00,
2013-08-30 05:28:00,66.4,61.1,29.97,WNW,292,0.0,0.0,83,0.00,,,0.00,Wunderground v.1.15,2013-08-30 09:28:00,
2013-08-30 05:33:00,66.4,61.1,29.97,WNW,292,0.0,2.0,83,0.00,,,0.00,Wunderground v.1.15,2013-08-30 09:33:00,
2013-08-30 05:39:00,66.4,61.1,29.97,WNW,292,0.0,2.0,83,0.00,,,0.00,Wunderground v.1.15,2013-08-30 09:39:00,
2013-08-30 05:44:00,66.3,61.0,29.97,WNW,292,0.0,0.0,83,0.00,,,0.00,Wunderground v.1.15,2013-08-30 09:44:00,
2013-08-30 05:49:00,66.3,61.0,29.97,WNW,292,0.0,1.0,83,0.00,,,0.00,Wunderground v.1.15,2013-08-30 09:49:00,
2013-08-30 05:54:00,66.2,60.9,29.97,WNW,292,0.0,2.0,83,0.00,,,0.00,Wunderground v.1.15,2013-08-30 09:54:00,
2013-08-30 06:00:00,66.2,60.9,29.97,WNW,292,0.0,0.0,83,0.00,,,0.00,Wunderground v.1.15,2013-08-30 10:00:00,
2013-08-30 06:05:00,66.2,60.9,29.97,WNW,292,0.0,2.0,83,0.00,,,0.00,Wunderground v.1.15,2013-08-30 10:05:00,
2013-08-30 06:11:00,66.1,60.8,29.97,WNW,292,0.0,1.0,83,0.00,,,0.00,Wunderground v.1.15,2013-08-30 10:11:00,
2013-08-30 06:16:00,66.1,60.8,29.97,WNW,292,0.0,1.0,83,0.00,,,0.00,Wunderground v.1.15,2013-08-30 10:16:00,
2013-08-30 06:21:00,66.1,60.8,29.97,WNW,292,0.0,0.0,83,0.00,,,0.00,Wunderground v.1.15,2013-08-30 10:21:00,
2013-08-30 06:27:00,66.1,60.8,29.97,WNW,292,0.0,0.0,83,0.00,,,0.00,Wunderground v.1.15,2013-08-30 10:27:00,
2013-08-30 06:33:00,66.0,60.7,29.97,WNW,292,0.0,0.0,83,0.00,,,0.00,Wunderground v.1.15,2013-08-30 10:33:00,
2013-08-30 06:39:00,66.1,60.8,29.98,WNW,292,0.0,0.0,83,0.00,,,0.00,Wunderground v.1.15,2013-08-30 10:39:00,
2013-08-30 06:44:00,66.1,60.8,29.98,WNW,292,0.0,0.0,83,0.00,,,0.00,Wunderground v.1.15,2013-08-30 10:44:00,
2013-08-30 06:50:00,66.1,60.8,29.98,WNW,292,0.0,0.0,83,0.00,,,0.00,Wunderground v.1.15,2013-08-30 10:50:00,
2013-08-30 06:56:00,66.2,60.9,29.98,WNW,292,0.0,0.0,83,0.00,,,0.00,Wunderground v.1.15,2013-08-30 10:56:00,
2013-08-30 07:02:00,66.2,60.9,29.98,WNW,292,0.0,1.0,83,0.00,,,0.00,Wunderground v.1.15,2013-08-30 11:02:00,
2013-08-30 07:07:00,66.2,60.9,29.98,WNW,292,0.0,1.0,83,0.00,,,0.00,Wunderground v.1.15,2013-08-30 11:07:00,
2013-08-30 07:13:00,66.2,60.9,29.97,WNW,292,0.0,0.0,83,0.00,,,0.00,Wunderground v.1.15,2013-08-30 11:13:00,
2013-08-30 07:18:00,66.2,60.9,29.96,WNW,292,0.0,3.0,83,0.00,,,0.00,Wunderground v.1.15,2013-08-30 11:18:00,
2013-08-30 07:24:00,66.2,60.9,29.96,WNW,292,0.0,0.0,83,0.00,,,0.00,Wunderground v.1.15,2013-08-30 11:24:00,
2013-08-30 07:29:00,66.2,60.9,29.96,WNW,292,0.0,2.0,83,0.00,,,0.00,Wunderground v.1.15,2013-08-30 11:29:00,
2013-08-30 07:35:00,66.3,61.0,29.97,WNW,292,0.0,2.0,83,0.00,,,0.00,Wunderground v.1.15,2013-08-30 11:35:00,
2013-08-30 07:40:00,66.3,61.0,29.97,WNW,292,0.0,0.0,83,0.00,,,0.00,Wunderground v.1.15,2013-08-30 11:40:00,
2013-08-30 07:46:00,66.3,61.0,29.97,WNW,292,0.0,0.0,83,0.00,,,0.00,Wunderground v.1.15,2013-08-30 11:46:00,
2013-08-30 07:52:00,66.3,61.0,29.97,WNW,292,0.0,0.0,83,0.00,,,0.00,Wunderground v.1.15,2013-08-30 11:52:00,
2013-08-30 07:58:00,66.4,61.1,29.97,WNW,292,0.0,0.0,83,0.00,,,0.00,Wunderground v.1.15,2013-08-30 11:58:00,
2013-08-30 08:04:00,66.4,61.1,29.97,WNW,292,0.0,0.0,83,0.00,,,0.00,Wunderground v.1.15,2013-08-30 12:04:00,
2013-08-30 08:09:00,66.5,61.2,29.97,WNW,292,0.0,0.0,83,0.00,,,0.00,Wunderground v.1.15,2013-08-30 12:09:00,
2013-08-30 08:14:00,66.5,61.2,29.96,WNW,292,0.0,0.0,83,0.00,,,0.00,Wunderground v.1.15,2013-08-30 12:14:00,
2013-08-30 08:20:00,66.5,61.2,29.97,WNW,292,0.0,0.0,83,0.00,,,0.00,Wunderground v.1.15,2013-08-30 12:20:00,
2013-08-30 08:26:00,66.5,61.2,29.97,WNW,292,0.0,0.0,83,0.00,,,0.00,Wunderground v.1.15,2013-08-30 12:26:00,
2013-08-30 08:31:00,66.6,61.3,29.97,WNW,292,0.0,0.0,83,0.00,,,0.00,Wunderground v.1.15,2013-08-30 12:31:00,
2013-08-30 08:36:00,66.5,61.2,29.97,WNW,292,0.0,2.0,83,0.00,,,0.00,Wunderground v.1.15,2013-08-30 12:36:00,
2013-08-30 08:41:00,66.5,61.2,29.97,WNW,292,0.0,0.0,83,0.00,,,0.00,Wunderground v.1.15,2013-08-30 12:41:00,
2013-08-30 08:47:00,66.4,61.1,29.97,WNW,292,0.0,0.0,83,0.00,,,0.00,Wunderground v.1.15,2013-08-30 12:47:00,
2013-08-30 08:53:00,66.5,61.2,29.96,WNW,292,0.0,0.0,83,0.00,,,0.00,Wunderground v.1.15,2013-08-30 12:53:00,
2013-08-30 08:58:00,66.5,61.2,29.97,WNW,292,0.0,0.0,83,0.00,,,0.00,Wunderground v.1.15,2013-08-30 12:58:00,
2013-08-30 09:03:00,66.6,61.3,29.96,WNW,292,0.0,0.0,83,0.00,,,0.00,Wunderground v.1.15,2013-08-30 13:03:00,
2013-08-30 09:08:00,66.7,61.4,29.97,WNW,292,0.0,2.0,83,0.00,,,0.00,Wunderground v.1.15,2013-08-30 13:08:00,
2013-08-30 09:13:00,66.9,61.6,29.97,WNW,292,0.0,0.0,83,0.00,,,0.00,Wunderground v.1.15,2013-08-30 13:13:00,
2013-08-30 09:18:00,66.9,61.6,29.97,WNW,292,0.0,0.0,83,0.00,,,0.00,Wunderground v.1.15,2013-08-30 13:18:00,
2013-08-30 09:24:00,67.0,61.7,29.97,WNW,292,0.0,0.0,83,0.00,,,0.00,Wunderground v.1.15,2013-08-30 13:24:00,
2013-08-30 09:30:00,66.9,61.6,29.97,WNW,292,0.0,0.0,83,0.00,,,0.00,Wunderground v.1.15,2013-08-30 13:30:00,
2013-08-30 09:35:00,67.0,61.7,29.97,WNW,292,0.0,1.0,83,0.00,,,0.00,Wunderground v.1.15,2013-08-30 13:35:00,
2013-08-30 09:40:00,67.0,61.7,29.97,WNW,292,0.0,0.0,83,0.00,,,0.00,Wunderground v.1.15,2013-08-30 13:40:00,
2013-08-30 09:45:00,67.1,61.8,29.97,WNW,292,0.0,1.0,83,0.00,,,0.00,Wunderground v.1.15,2013-08-30 13:45:00,
2013-08-30 09:50:00,67.1,61.8,29.97,WNW,292,0.0,0.0,83,0.00,,,0.00,Wunderground v.1.15,2013-08-30 13:50:00,
2013-08-30 09:56:00,67.1,61.8,29.97,WNW,292,0.0,1.0,83,0.00,,,0.00,Wunderground v.1.15,2013-08-30 13:56:00,
2013-08-30 10:01:00,67.1,61.8,29.97,WNW,292,0.0,0.0,83,0.00,,,0.00,Wunderground v.1.15,2013-08-30 14:01:00,
2013-08-30 10:06:00,67.3,62.0,29.97,WNW,292,0.0,3.0,83,0.00,,,0.00,Wunderground v.1.15,2013-08-30 14:06:00,
2013-08-30 10:12:00,67.7,62.3,29.97,WNW,292,0.0,0.0,83,0.00,,,0.00,Wunderground v.1.15,2013-08-30 14:12:00,
2013-08-30 10:18:00,67.8,62.4,29.96,WNW,292,1.0,2.0,83,0.00,,,0.00,Wunderground v.1.15,2013-08-30 14:18:00,
2013-08-30 10:24:00,68.1,62.7,29.96,WNW,292,1.0,1.0,83,0.00,,,0.00,Wunderground v.1.15,2013-08-30 14:24:00,
2013-08-30 10:29:00,68.8,63.4,29.96,WNW,292,0.0,1.0,83,0.00,,,0.00,Wunderground v.1.15,2013-08-30 14:29:00,
2013-08-30 10:34:00,69.1,63.7,29.96,WNW,292,0.0,0.0,83,0.00,,,0.00,Wunderground v.1.15,2013-08-30 14:34:00,
2013-08-30 10:40:00,69.5,65.1,29.96,WNW,292,0.0,0.0,86,0.00,,,0.00,Wunderground v.1.15,2013-08-30 14:40:00,
2013-08-30 10:46:00,69.7,66.3,29.95,WNW,292,0.0,0.0,89,0.00,,,0.00,Wunderground v.1.15,2013-08-30 14:46:00,
2013-08-30 10:52:00,70.3,66.9,29.95,WNW,292,0.0,2.0,89,0.00,,,0.00,Wunderground v.1.15,2013-08-30 14:52:00,
2013-08-30 10:58:00,71.3,68.2,29.95,WNW,296,1.0,3.0,90,0.00,,,0.00,Wunderground v.1.15,2013-08-30 14:58:00,
2013-08-30 11:03:00,72.2,68.8,29.95,WNW,296,1.0,3.0,89,0.00,,,0.00,Wunderground v.1.15,2013-08-30 15:03:00,
2013-08-30 11:09:00,73.1,69.0,29.95,WNW,290,1.0,3.0,87,0.00,,,0.00,Wunderground v.1.15,2013-08-30 15:09:00,
2013-08-30 11:15:00,72.4,68.0,29.94,WSW,254,2.0,5.0,86,0.00,,,0.00,Wunderground v.1.15,2013-08-30 15:15:00,
2013-08-30 11:20:00,72.4,68.3,29.94,SW,230,2.0,2.0,87,0.00,,,0.00,Wunderground v.1.15,2013-08-30 15:20:00,
2013-08-30 11:25:00,73.0,68.6,29.94,SW,230,1.0,2.0,86,0.00,,,0.00,Wunderground v.1.15,2013-08-30 15:25:00,
2013-08-30 11:31:00,73.3,69.2,29.94,SW,217,1.0,2.0,87,0.00,,,0.00,Wunderground v.1.15,2013-08-30 15:31:00,
2013-08-30 11:37:00,73.8,68.3,29.94,SW,217,1.0,2.0,83,0.00,,,0.00,Wunderground v.1.15,2013-08-30 15:37:00,
2013-08-30 11:43:00,73.5,68.4,29.93,SSW,212,1.0,5.0,84,0.00,,,0.00,Wunderground v.1.15,2013-08-30 15:43:00,
2013-08-30 11:49:00,74.0,68.9,29.94,SSW,213,2.0,2.0,84,0.00,,,0.00,Wunderground v.1.15,2013-08-30 15:49:00,
2013-08-30 11:54:00,74.4,69.2,29.93,SSW,206,2.0,4.0,84,0.00,,,0.00,Wunderground v.1.15,2013-08-30 15:54:00,
2013-08-30 11:59:00,75.0,69.1,29.93,SSW,205,2.0,4.0,82,0.00,,,0.00,Wunderground v.1.15,2013-08-30 15:59:00,
2013-08-30 12:05:00,75.7,69.8,29.92,SSW,206,1.0,3.0,82,0.00,,,0.00,Wunderground v.1.15,2013-08-30 16:05:00,
2013-08-30 12:11:00,75.8,69.6,29.92,SSW,208,1.0,4.0,81,0.00,,,0.00,Wunderground v.1.15,2013-08-30 16:11:00,
2013-08-30 12:16:00,75.7,69.8,29.92,WSW,244,2.0,4.0,82,0.00,,,0.00,Wunderground v.1.15,2013-08-30 16:16:00,
2013-08-30 12:22:00,76.1,69.1,29.91,WSW,244,1.0,3.0,79,0.00,,,0.00,Wunderground v.1.15,2013-08-30 16:22:00,
2013-08-30 12:28:00,76.5,69.1,29.91,WSW,244,1.0,3.0,78,0.00,,,0.00,Wunderground v.1.15,2013-08-30 16:28:00,
2013-08-30 12:33:00,77.1,69.3,29.91,SW,234,1.0,3.0,77,0.00,,,0.00,Wunderground v.1.15,2013-08-30 16:33:00,
2013-08-30 12:38:00,77.7,70.7,29.91,SW,236,0.0,3.0,79,0.00,,,0.00,Wunderground v.1.15,2013-08-30 16:38:00,
2013-08-30 12:44:00,78.2,69.6,29.90,WSW,243,1.0,2.0,75,0.00,,,0.00,Wunderground v.1.15,2013-08-30 16:44:00,
2013-08-30 12:49:00,78.1,69.5,29.90,WSW,243,1.0,5.0,75,0.00,,,0.00,Wunderground v.1.15,2013-08-30 16:49:00,
2013-08-30 12:55:00,78.6,70.8,29.90,WSW,243,0.0,2.0,77,0.00,,,0.00,Wunderground v.1.15,2013-08-30 16:55:00,
2013-08-30 13:00:00,78.8,70.2,29.90,WSW,244,1.0,1.0,75,0.00,,,0.00,Wunderground v.1.15,2013-08-30 17:00:00,
2013-08-30 13:05:00,79.2,69.8,29.90,WSW,244,1.0,5.0,73,0.00,,,0.00,Wunderground v.1.15,2013-08-30 17:05:00,
2013-08-30 13:11:00,79.2,69.8,29.90,SW,229,3.0,9.0,73,0.00,,,0.00,Wunderground v.1.15,2013-08-30 17:11:00,
2013-08-30 13:16:00,79.6,69.0,29.90,West,259,3.0,9.0,70,0.00,,,0.00,Wunderground v.1.15,2013-08-30 17:16:00,
2013-08-30 13:22:00,80.2,69.5,29.90,West,260,2.0,4.0,70,0.00,,,0.00,Wunderground v.1.15,2013-08-30 17:22:00,
2013-08-30 13:27:00,80.3,70.0,29.89,West,261,1.0,4.0,71,0.00,,,0.00,Wunderground v.1.15,2013-08-30 17:27:00,
2013-08-30 13:32:00,80.5,69.0,29.89,West,277,2.0,3.0,68,0.00,,,0.00,Wunderground v.1.15,2013-08-30 17:32:00,
2013-08-30 13:37:00,80.4,69.7,29.89,WSW,252,3.0,5.0,70,0.00,,,0.00,Wunderground v.1.15,2013-08-30 17:37:00,
2013-08-30 13:43:00,80.5,69.8,29.89,West,269,2.0,6.0,70,0.00,,,0.00,Wunderground v.1.15,2013-08-30 17:43:00,
2013-08-30 13:48:00,80.7,70.4,29.88,West,269,1.0,6.0,71,0.00,,,0.00,Wunderground v.1.15,2013-08-30 17:48:00,
2013-08-30 13:54:00,81.5,71.2,29.88,West,277,1.0,4.0,71,0.00,,,0.00,Wunderground v.1.15,2013-08-30 17:54:00,
2013-08-30 14:00:00,81.3,69.7,29.88,NNW,327,2.0,2.0,68,0.00,,,0.00,Wunderground v.1.15,2013-08-30 18:00:00,
2013-08-30 14:05:00,81.0,69.9,29.88,NNW,327,1.0,3.0,69,0.00,,,0.00,Wunderground v.1.15,2013-08-30 18:05:00,
2013-08-30 14:11:00,81.6,70.0,29.88,NNW,328,1.0,2.0,68,0.00,,,0.00,Wunderground v.1.15,2013-08-30 18:11:00,
2013-08-30 14:16:00,81.7,69.2,29.88,WNW,289,2.0,6.0,66,0.00,,,0.00,Wunderground v.1.15,2013-08-30 18:16:00,
2013-08-30 14:21:00,81.6,70.9,29.88,West,281,2.0,2.0,70,0.00,,,0.00,Wunderground v.1.15,2013-08-30 18:21:00,
2013-08-30 14:27:00,81.8,69.3,29.87,West,279,1.0,2.0,66,0.00,,,0.00,Wunderground v.1.15,2013-08-30 18:27:00,
2013-08-30 14:32:00,81.8,69.8,29.87,WSW,250,1.0,3.0,67,0.00,,,0.00,Wunderground v.1.15,2013-08-30 18:32:00,
2013-08-30 14:37:00,81.8,70.2,29.87,WSW,244,1.0,5.0,68,0.00,,,0.00,Wunderground v.1.15,2013-08-30 18:37:00,
2013-08-30 14:43:00,82.2,70.1,29.86,West,259,2.0,5.0,67,0.00,,,0.00,Wunderground v.1.15,2013-08-30 18:43:00,
2013-08-30 14:48:00,82.4,70.8,29.86,WNW,294,2.0,5.0,68,0.00,,,0.00,Wunderground v.1.15,2013-08-30 18:48:00,
2013-08-30 14:53:00,82.4,70.8,29.86,WNW,285,1.0,3.0,68,0.00,,,0.00,Wunderground v.1.15,2013-08-30 18:53:00,
2013-08-30 14:58:00,82.8,71.6,29.86,WNW,290,2.0,3.0,69,0.00,,,0.00,Wunderground v.1.15,2013-08-30 18:58:00,
2013-08-30 15:04:00,82.9,69.5,29.86,WNW,294,2.0,3.0,64,0.00,,,0.00,Wunderground v.1.15,2013-08-30 19:04:00,
2013-08-30 15:09:00,82.7,70.6,29.86,WNW,286,1.0,3.0,67,0.00,,,0.00,Wunderground v.1.15,2013-08-30 19:09:00,
2013-08-30 15:14:00,82.7,69.7,29.85,WNW,284,1.0,3.0,65,0.00,,,0.00,Wunderground v.1.15,2013-08-30 19:14:00,
2013-08-30 15:20:00,82.4,69.9,29.85,WNW,284,1.0,1.0,66,0.00,,,0.00,Wunderground v.1.15,2013-08-30 19:20:00,
2013-08-30 15:25:00,82.4,70.3,29.85,NW,304,1.0,3.0,67,0.00,,,0.00,Wunderground v.1.15,2013-08-30 19:25:00,
2013-08-30 15:31:00,83.1,69.2,29.85,NW,304,1.0,1.0,63,0.00,,,0.00,Wunderground v.1.15,2013-08-30 19:31:00,
2013-08-30 15:36:00,83.0,70.5,29.85,NW,304,1.0,2.0,66,0.00,,,0.00,Wunderground v.1.15,2013-08-30 19:36:00,
2013-08-30 15:42:00,83.0,70.0,29.84,WNW,283,1.0,5.0,65,0.00,,,0.00,Wunderground v.1.15,2013-08-30 19:42:00,
2013-08-30 15:47:00,82.8,69.4,29.84,West,281,1.0,5.0,64,0.00,,,0.00,Wunderground v.1.15,2013-08-30 19:47:00,
2013-08-30 15:53:00,82.5,70.0,29.84,West,274,1.0,3.0,66,0.00,,,0.00,Wunderground v.1.15,2013-08-30 19:53:00,
2013-08-30 15:58:00,82.9,71.3,29.84,West,269,2.0,3.0,68,0.00,,,0.00,Wunderground v.1.15,2013-08-30 19:58:00,
2013-08-30 16:03:00,82.8,69.8,29.84,West,269,2.0,3.0,65,0.00,,,0.00,Wunderground v.1.15,2013-08-30 20:03:00,
2013-08-30 16:09:00,82.5,69.1,29.84,West,263,1.0,3.0,64,0.00,,,0.00,Wunderground v.1.15,2013-08-30 20:09:00,
2013-08-30 16:14:00,82.7,69.7,29.83,West,259,1.0,4.0,65,0.00,,,0.00,Wunderground v.1.15,2013-08-30 20:14:00,
2013-08-30 16:20:00,82.8,69.4,29.83,West,259,1.0,1.0,64,0.00,,,0.00,Wunderground v.1.15,2013-08-30 20:20:00,
2013-08-30 16:25:00,82.9,69.9,29.84,West,259,1.0,1.0,65,0.00,,,0.00,Wunderground v.1.15,2013-08-30 20:25:00,
2013-08-30 16:30:00,82.4,69.9,29.83,West,259,0.0,1.0,66,0.00,,,0.00,Wunderground v.1.15,2013-08-30 20:30:00,
2013-08-30 16:36:00,82.5,70.9,29.83,NW,311,1.0,3.0,68,0.00,,,0.00,Wunderground v.1.15,2013-08-30 20:36:00,
2013-08-30 16:41:00,82.7,71.1,29.83,NW,319,1.0,2.0,68,0.00,,,0.00,Wunderground v.1.15,2013-08-30 20:41:00,
2013-08-30 16:46:00,82.4,69.9,29.83,NW,319,1.0,2.0,66,0.00,,,0.00,Wunderground v.1.15,2013-08-30 20:46:00,
2013-08-30 16:52:00,82.2,70.6,29.83,NW,320,1.0,2.0,68,0.00,,,0.00,Wunderground v.1.15,2013-08-30 20:52:00,
2013-08-30 16:57:00,82.1,69.2,29.82,NW,320,1.0,2.0,65,0.00,,,0.00,Wunderground v.1.15,2013-08-30 20:57:00,
2013-08-30 17:02:00,82.3,70.7,29.82,NW,320,0.0,0.0,68,0.00,,,0.00,Wunderground v.1.15,2013-08-30 21:02:00,
2013-08-30 17:08:00,82.4,71.2,29.81,NW,320,0.0,0.0,69,0.00,,,0.00,Wunderground v.1.15,2013-08-30 21:08:00,
2013-08-30 17:13:00,82.1,72.2,29.81,NW,320,0.0,0.0,72,0.00,,,0.00,Wunderground v.1.15,2013-08-30 21:13:00,
2013-08-30 17:18:00,81.8,71.5,29.81,NW,320,0.0,0.0,71,0.00,,,0.00,Wunderground v.1.15,2013-08-30 21:18:00,
2013-08-30 17:24:00,81.5,71.2,29.81,NW,320,0.0,0.0,71,0.00,,,0.00,Wunderground v.1.15,2013-08-30 21:24:00,
2013-08-30 17:29:00,81.3,71.8,29.80,NW,320,0.0,0.0,73,0.00,,,0.00,Wunderground v.1.15,2013-08-30 21:29:00,
2013-08-30 17:35:00,80.6,72.7,29.81,NW,320,0.0,0.0,77,0.00,,,0.00,Wunderground v.1.15,2013-08-30 21:35:00,
2013-08-30 17:40:00,80.2,73.1,29.80,NW,320,0.0,0.0,79,0.00,,,0.00,Wunderground v.1.15,2013-08-30 21:40:00,
2013-08-30 17:45:00,79.7,72.6,29.80,NW,320,0.0,0.0,79,0.00,,,0.00,Wunderground v.1.15,2013-08-30 21:45:00,
2013-08-30 17:50:00,79.9,72.8,29.81,NW,320,0.0,0.0,79,0.00,,,0.00,Wunderground v.1.15,2013-08-30 21:50:00,
2013-08-30 17:56:00,80.6,71.5,29.81,NW,320,0.0,2.0,74,0.00,,,0.00,Wunderground v.1.15,2013-08-30 21:56:00,
2013-08-30 18:01:00,80.9,71.8,29.81,NW,320,0.0,0.0,74,0.00,,,0.00,Wunderground v.1.15,2013-08-30 22:01:00,
2013-08-30 18:07:00,80.8,72.1,29.81,NW,320,0.0,0.0,75,0.00,,,0.00,Wunderground v.1.15,2013-08-30 22:07:00,
2013-08-30 18:12:00,80.6,71.9,29.81,NW,320,0.0,0.0,75,0.00,,,0.00,Wunderground v.1.15,2013-08-30 22:12:00,
2013-08-30 18:17:00,80.3,72.0,29.80,NW,320,0.0,0.0,76,0.00,,,0.00,Wunderground v.1.15,2013-08-30 22:17:00,
2013-08-30 18:23:00,80.1,71.8,29.80,NW,320,0.0,0.0,76,0.00,,,0.00,Wunderground v.1.15,2013-08-30 22:23:00,
2013-08-30 18:28:00,80.0,72.5,29.80,NW,320,0.0,0.0,78,0.00,,,0.00,Wunderground v.1.15,2013-08-30 22:28:00,
2013-08-30 18:33:00,80.5,72.2,29.79,NW,320,0.0,0.0,76,0.00,,,0.00,Wunderground v.1.15,2013-08-30 22:33:00,
2013-08-30 18:38:00,81.0,73.1,29.79,NW,320,0.0,0.0,77,0.00,,,0.00,Wunderground v.1.15,2013-08-30 22:38:00,
2013-08-30 18:44:00,81.1,72.8,29.79,NW,320,0.0,0.0,76,0.00,,,0.00,Wunderground v.1.15,2013-08-30 22:44:00,
2013-08-30 18:49:00,81.1,73.2,29.79,NW,320,0.0,0.0,77,0.00,,,0.00,Wunderground v.1.15,2013-08-30 22:49:00,
2013-08-30 18:54:00,81.0,73.5,29.79,NW,320,0.0,0.0,78,0.00,,,0.00,Wunderground v.1.15,2013-08-30 22:54:00,
2013-08-30 19:00:00,80.9,73.4,29.79,NW,320,0.0,0.0,78,0.00,,,0.00,Wunderground v.1.15,2013-08-30 23:00:00,
2013-08-30 19:05:00,80.6,72.3,29.79,NW,320,0.0,0.0,76,0.00,,,0.00,Wunderground v.1.15,2013-08-30 23:05:00,
2013-08-30 19:11:00,80.2,71.9,29.79,NW,320,0.0,0.0,76,0.00,,,0.00,Wunderground v.1.15,2013-08-30 23:11:00,
2013-08-30 19:16:00,79.5,72.0,29.79,NW,320,0.0,0.0,78,0.00,,,0.00,Wunderground v.1.15,2013-08-30 23:16:00,
2013-08-30 19:21:00,78.6,71.9,29.79,NW,320,0.0,0.0,80,0.00,,,0.00,Wunderground v.1.15,2013-08-30 23:21:00,
2013-08-30 19:27:00,77.5,71.6,29.79,NW,320,0.0,0.0,82,0.00,,,0.00,Wunderground v.1.15,2013-08-30 23:27:00,
2013-08-30 19:32:00,76.6,71.4,29.79,NW,320,0.0,0.0,84,0.00,,,0.00,Wunderground v.1.15,2013-08-30 23:32:00,
2013-08-30 19:37:00,76.0,70.8,29.79,NW,320,0.0,0.0,84,0.00,,,0.00,Wunderground v.1.15,2013-08-30 23:37:00,
2013-08-30 19:43:00,75.4,70.6,29.79,NW,320,0.0,0.0,85,0.00,,,0.00,Wunderground v.1.15,2013-08-30 23:43:00,
2013-08-30 19:48:00,74.8,70.3,29.79,NW,320,0.0,0.0,86,0.00,,,0.00,Wunderground v.1.15,2013-08-30 23:48:00,
2013-08-30 19:53:00,74.3,70.2,29.79,NW,320,0.0,0.0,87,0.00,,,0.00,Wunderground v.1.15,2013-08-30 23:53:00,
2013-08-30 19:59:00,73.8,69.7,29.79,NW,320,0.0,0.0,87,0.00,,,0.00,Wunderground v.1.15,2013-08-30 23:59:00,
2013-08-30 20:04:00,73.4,69.6,29.79,NW,320,0.0,0.0,88,0.00,,,0.00,Wunderground v.1.15,2013-08-31 00:04:00,
2013-08-30 20:10:00,73.1,69.3,29.79,NW,320,0.0,0.0,88,0.00,,,0.00,Wunderground v.1.15,2013-08-31 00:10:00,
2013-08-30 20:15:00,72.8,69.0,29.79,NW,320,0.0,0.0,88,0.00,,,0.00,Wunderground v.1.15,2013-08-31 00:15:00,
2013-08-30 20:21:00,72.4,68.6,29.79,NW,320,0.0,0.0,88,0.00,,,0.00,Wunderground v.1.15,2013-08-31 00:21:00,
2013-08-30 20:26:00,72.2,68.8,29.79,NW,320,0.0,0.0,89,0.00,,,0.00,Wunderground v.1.15,2013-08-31 00:26:00,
2013-08-30 20:32:00,72.0,68.6,29.80,NW,320,0.0,0.0,89,0.00,,,0.00,Wunderground v.1.15,2013-08-31 00:32:00,
2013-08-30 20:37:00,71.9,68.5,29.80,NW,320,0.0,0.0,89,0.00,,,0.00,Wunderground v.1.15,2013-08-31 00:37:00,
2013-08-30 20:42:00,71.8,68.4,29.80,NW,320,0.0,0.0,89,0.00,,,0.00,Wunderground v.1.15,2013-08-31 00:42:00,
2013-08-30 20:48:00,71.8,68.4,29.80,NW,320,0.0,0.0,89,0.00,,,0.00,Wunderground v.1.15,2013-08-31 00:48:00,
2013-08-30 20:53:00,71.6,68.2,29.80,NW,320,0.0,0.0,89,0.00,,,0.00,Wunderground v.1.15,2013-08-31 00:53:00,
2013-08-30 20:59:00,71.4,68.0,29.79,NW,320,0.0,0.0,89,0.00,,,0.00,Wunderground v.1.15,2013-08-31 00:59:00,
2013-08-30 21:04:00,71.2,67.8,29.79,NW,320,0.0,0.0,89,0.00,,,0.00,Wunderground v.1.15,2013-08-31 01:04:00,
2013-08-30 21:10:00,70.9,67.5,29.79,NW,320,0.0,0.0,89,0.00,,,0.00,Wunderground v.1.15,2013-08-31 01:10:00,
2013-08-30 21:16:00,70.6,67.2,29.79,NW,320,0.0,0.0,89,0.00,,,0.00,Wunderground v.1.15,2013-08-31 01:16:00,
2013-08-30 21:21:00,70.4,67.0,29.79,NW,320,0.0,0.0,89,0.00,,,0.00,Wunderground v.1.15,2013-08-31 01:21:00,
2013-08-30 21:27:00,70.2,66.8,29.79,NW,320,0.0,0.0,89,0.00,,,0.00,Wunderground v.1.15,2013-08-31 01:27:00,
2013-08-30 21:32:00,70.0,66.6,29.79,NW,320,0.0,0.0,89,0.00,,,0.00,Wunderground v.1.15,2013-08-31 01:32:00,
2013-08-30 21:38:00,69.9,66.5,29.79,NW,320,0.0,0.0,89,0.00,,,0.00,Wunderground v.1.15,2013-08-31 01:38:00,
2013-08-30 21:43:00,69.7,66.3,29.78,NW,320,0.0,0.0,89,0.00,,,0.00,Wunderground v.1.15,2013-08-31 01:43:00,
2013-08-30 21:49:00,69.6,66.2,29.78,NW,320,0.0,0.0,89,0.00,,,0.00,Wunderground v.1.15,2013-08-31 01:49:00,
2013-08-30 21:54:00,69.6,66.2,29.78,NW,320,0.0,0.0,89,0.00,,,0.00,Wunderground v.1.15,2013-08-31 01:54:00,
2013-08-30 22:00:00,69.6,66.2,29.78,NW,320,0.0,0.0,89,0.00,,,0.00,Wunderground v.1.15,2013-08-31 02:00:00,
2013-08-30 22:05:00,69.6,66.2,29.78,NW,320,0.0,0.0,89,0.00,,,0.00,Wunderground v.1.15,2013-08-31 02:05:00,
2013-08-30 22:11:00,69.5,66.1,29.78,NW,320,0.0,0.0,89,0.00,,,0.00,Wunderground v.1.15,2013-08-31 02:11:00,
2013-08-30 22:17:00,69.5,66.1,29.78,NW,320,0.0,0.0,89,0.00,,,0.00,Wunderground v.1.15,2013-08-31 02:17:00,
2013-08-30 22:23:00,69.5,66.1,29.77,NW,320,0.0,0.0,89,0.00,,,0.00,Wunderground v.1.15,2013-08-31 02:23:00,
2013-08-30 22:28:00,69.7,66.3,29.78,NW,320,0.0,0.0,89,0.00,,,0.00,Wunderground v.1.15,2013-08-31 02:28:00,
2013-08-30 22:34:00,69.9,66.5,29.79,NW,322,0.0,4.0,89,0.00,,,0.00,Wunderground v.1.15,2013-08-31 02:34:00,
2013-08-30 22:39:00,69.7,66.3,29.80,NW,320,1.0,4.0,89,0.00,,,0.00,Wunderground v.1.15,2013-08-31 02:39:00,
2013-08-30 22:45:00,69.6,66.2,29.78,North,9,1.0,3.0,89,0.00,,,0.00,Wunderground v.1.15,2013-08-31 02:45:00,
2013-08-30 22:50:00,69.5,66.1,29.79,North,9,1.0,1.0,89,0.00,,,0.00,Wunderground v.1.15,2013-08-31 02:50:00,
2013-08-30 22:56:00,69.4,66.0,29.79,NNE,13,1.0,4.0,89,0.00,,,0.00,Wunderground v.1.15,2013-08-31 02:56:00,
2013-08-30 23:01:00,69.2,65.8,29.78,NNE,13,2.0,3.0,89,0.00,,,0.00,Wunderground v.1.15,2013-08-31 03:01:00,
2013-08-30 23:06:00,69.1,65.4,29.78,NNE,13,1.0,3.0,88,0.00,,,0.00,Wunderground v.1.15,2013-08-31 03:06:00,
2013-08-30 23:12:00,69.0,65.3,29.78,NNE,13,0.0,1.0,88,0.00,,,0.00,Wunderground v.1.15,2013-08-31 03:12:00,
2013-08-30 23:17:00,69.0,65.3,29.78,NNE,13,0.0,1.0,88,0.00,,,0.00,Wunderground v.1.15,2013-08-31 03:17:00,
2013-08-30 23:23:00,68.9,65.2,29.79,NNE,13,0.0,0.0,88,0.00,,,0.00,Wunderground v.1.15,2013-08-31 03:23:00,
2013-08-30 23:28:00,68.8,64.8,29.79,NNE,13,0.0,0.0,87,0.00,,,0.00,Wunderground v.1.15,2013-08-31 03:28:00,
2013-08-30 23:33:00,68.8,64.8,29.80,NNE,13,0.0,0.0,87,0.00,,,0.00,Wunderground v.1.15,2013-08-31 03:33:00,
2013-08-30 23:39:00,68.8,64.8,29.80,NNE,13,0.0,0.0,87,0.00,,,0.00,Wunderground v.1.15,2013-08-31 03:39:00,
2013-08-30 23:44:00,68.8,64.4,29.79,NNE,13,0.0,0.0,86,0.00,,,0.00,Wunderground v.1.15,2013-08-31 03:44:00,
2013-08-30 23:50:00,68.8,64.4,29.78,NNE,14,0.0,0.0,86,0.00,,,0.00,Wunderground v.1.15,2013-08-31 03:50:00,
2013-08-30 23:56:00,68.8,64.4,29.78,NNE,27,2.0,4.0,86,0.00,,,0.00,Wunderground v.1.15,2013-08-31 03:56:00,